Location: ???
(60.6398°N, 46.9067°E)
Time: 18:25:37
(UTC+00:00)

COSMOS 2428 - Pass Details

Date: 08 December 2019
Orbit: 844 x 858 km, 70.9° (Epoch: 17 January)

Event Time Altitude Azimuth Distance (km) Brightness Sun altitude
Rises 15:24:37 0° 225° (SW) 3,402 6.5 -24.6°
Reaches altitude 10° 15:27:04 10° 226° (SW) 2,471 5.7 -24.9°
Maximum altitude 15:32:45 78° 313° (NW) 874 2.7 -25.6°
Enters shadow 15:34:06 54° 27° (NNE) 1,033 2.9 -25.7°
